Weather History for Soldotna, AK

Change the Weather History Date:

Thursday, July 31, 2014

  Actual Average Record
Temperature  
Mean Temperature 56 °F -  
Max Temperature 64 °F 62 °F 78 °F (2002)
Min Temperature 48 °F 48 °F 37 °F (1988)
Degree Days  
Heating Degree Days 9    
Growing Degree Days 6 (Base 50)    
Moisture  
Dew Point 49 °F    
Average Humidity 73    
Maximum Humidity 93    
Minimum Humidity 56    
Precipitation  
Precipitation 0.00 in - - ()
Sea Level Pressure  
Sea Level Pressure 30.31 in    
Wind  
Wind Speed 7 mph (SW)    
Max Wind Speed 14 mph    
Max Gust Speed 18 mph    
Visibility 10 miles    
Events      
Averages and records for this station are not official NWS values.
T = Trace of Precipitation, MM = Missing Value Source: NWS Daily Summary

Daily Weather History Graph

Daily Weather History Graph

Search for Another Location

Airport:

Trip Planner

Search our weather history database for the weather conditions in past years. The results will help you decide how hot, cold, wet, or windy it might be!

Date:

Astronomy

Jul. 31, 2014 Rise Set
Actual Time 5:39 AM AKDT 10:39 PM AKDT
Civil Twilight 4:36 AM AKDT 11:41 PM AKDT
Nautical Twilight 2:42 AM AKDT 1:38 AM AKDT
Astronomical Twilight Sun does not rise Sun does not rise
Moon 11:47 AM AKDT (7/31) 11:20 PM AKDT (7/31)
Length of Visible Light 19h 05m
Length of Day
16h 59m
Waxing Crescent, 20% of the Moon is Illuminated
Jul 31
Waxing Crescent
Aug 3
First Quarter
Aug 10
Full
Aug 17
Last Quarter
Aug 25
New

Hourly Weather History & Observations

Time (AKDT) Temp. Dew Point Humidity Pressure Visibility Wind Dir Wind Speed Gust Speed Precip Events Conditions
12:16 AM 55.4 °F 50.0 °F 82% 30.27 in 10.0 mi SW 6.9 mph - N/A   Partly Cloudy
12:36 AM 55.4 °F 50.0 °F 82% 30.28 in 10.0 mi SSW 6.9 mph - N/A   Clear
12:56 AM 55.4 °F 50.0 °F 82% 30.29 in 10.0 mi SSW 8.1 mph - N/A   Clear
1:16 AM 53.6 °F 50.0 °F 88% 30.29 in 10.0 mi South 5.8 mph - N/A   Clear
1:36 AM 53.6 °F 50.0 °F 88% 30.29 in 10.0 mi SSW 6.9 mph - N/A   Clear
1:56 AM 53.6 °F 50.0 °F 88% 30.30 in 10.0 mi SSW 8.1 mph - N/A   Clear
2:16 AM 53.6 °F 50.0 °F 88% 30.30 in 10.0 mi SSW 6.9 mph - N/A   Clear
2:36 AM 53.6 °F 50.0 °F 88% 30.30 in 10.0 mi SSW 4.6 mph - N/A   Clear
2:56 AM 53.6 °F 50.0 °F 88% 30.30 in 10.0 mi South 3.5 mph - N/A   Clear
3:16 AM 53.6 °F 48.2 °F 82% 30.30 in 10.0 mi SSW 4.6 mph - N/A   Clear
3:36 AM 53.6 °F 48.2 °F 82% 30.30 in 10.0 mi SSW 5.8 mph - N/A   Clear
3:56 AM 53.6 °F 48.2 °F 82% 30.30 in 10.0 mi SSW 5.8 mph - N/A   Clear
4:16 AM 53.6 °F 48.2 °F 82% 30.31 in 10.0 mi SSW 3.5 mph - N/A   Clear
4:36 AM 53.6 °F 48.2 °F 82% 30.31 in 10.0 mi South 4.6 mph - N/A   Clear
4:56 AM 53.6 °F 48.2 °F 82% 30.31 in 10.0 mi SSW 4.6 mph - N/A   Clear
5:16 AM 53.6 °F 48.2 °F 82% 30.31 in 10.0 mi South 3.5 mph - N/A   Clear
5:36 AM 53.6 °F 48.2 °F 82% 30.31 in 10.0 mi SSW 3.5 mph - N/A   Clear
5:56 AM 53.6 °F 48.2 °F 82% 30.31 in 10.0 mi SW 3.5 mph - N/A   Clear
6:16 AM 53.6 °F 48.2 °F 82% 30.31 in 10.0 mi Calm Calm - N/A   Clear
6:36 AM 51.8 °F 46.4 °F 82% 30.32 in 10.0 mi Calm Calm - N/A   Clear
6:56 AM 48.2 °F 46.4 °F 93% 30.32 in 10.0 mi Calm Calm - N/A   Clear
7:16 AM 48.2 °F 46.4 °F 93% 30.32 in 10.0 mi Calm Calm - N/A   Clear
7:36 AM 50.0 °F 46.4 °F 87% 30.32 in 10.0 mi Calm Calm - N/A   Clear
7:56 AM 50.0 °F 46.4 °F 87% 30.33 in 10.0 mi ENE 3.5 mph - N/A   Clear
8:16 AM 53.6 °F 48.2 °F 82% 30.33 in 10.0 mi Calm Calm - N/A   Clear
8:36 AM 55.4 °F 51.8 °F 88% 30.33 in 10.0 mi SW 9.2 mph - N/A   Clear
8:56 AM 57.2 °F 51.8 °F 82% 30.33 in 10.0 mi SW 9.2 mph - N/A   Clear
9:16 AM 57.2 °F 50.0 °F 77% 30.33 in 10.0 mi SSW 5.8 mph - N/A   Clear
9:36 AM 59.0 °F 51.8 °F 77% 30.33 in 10.0 mi SSW 6.9 mph - N/A   Clear
9:56 AM 59.0 °F 51.8 °F 77% 30.33 in 10.0 mi WSW 6.9 mph - N/A   Partly Cloudy
10:16 AM 60.8 °F 51.8 °F 72% 30.33 in 10.0 mi SSW 6.9 mph - N/A   Partly Cloudy
10:36 AM 60.8 °F 50.0 °F 68% 30.33 in 10.0 mi SW 4.6 mph - N/A   Scattered Clouds
10:56 AM 62.6 °F 50.0 °F 63% 30.33 in 10.0 mi SSW 6.9 mph - N/A   Mostly Cloudy
11:16 AM 60.8 °F 50.0 °F 68% 30.33 in 10.0 mi WSW 10.4 mph - N/A   Mostly Cloudy
11:36 AM 62.6 °F 50.0 °F 63% 30.33 in 10.0 mi WSW 8.1 mph - N/A   Scattered Clouds
11:56 AM 62.6 °F 51.8 °F 68% 30.33 in 10.0 mi SW 5.8 mph - N/A   Partly Cloudy
12:16 PM 62.6 °F 51.8 °F 68% 30.33 in 10.0 mi WSW 8.1 mph - N/A   Scattered Clouds
12:36 PM 64.4 °F 51.8 °F 64% 30.33 in 10.0 mi SW 8.1 mph - N/A   Partly Cloudy
12:56 PM 62.6 °F 50.0 °F 63% 30.33 in 10.0 mi Calm Calm - N/A   Clear
1:16 PM 64.4 °F 51.8 °F 64% 30.33 in 10.0 mi WNW 8.1 mph - N/A   Clear
1:36 PM 64.4 °F 51.8 °F 64% 30.32 in 10.0 mi West 10.4 mph - N/A   Partly Cloudy
1:56 PM 64.4 °F 51.8 °F 64% 30.32 in 10.0 mi WSW 11.5 mph - N/A   Partly Cloudy
2:16 PM 64.4 °F 51.8 °F 64% 30.32 in 10.0 mi West 11.5 mph - N/A   Clear
2:36 PM 64.4 °F 51.8 °F 64% 30.31 in 10.0 mi West 12.7 mph - N/A   Clear
2:56 PM 64.4 °F 50.0 °F 59% 30.31 in 10.0 mi West 12.7 mph - N/A   Clear
3:16 PM 64.4 °F 50.0 °F 59% 30.31 in 10.0 mi WSW 11.5 mph - N/A   Clear
3:36 PM 64.4 °F 50.0 °F 59% 30.31 in 10.0 mi West 13.8 mph - N/A   Clear
4:16 PM 64.4 °F 50.0 °F 59% 30.31 in 10.0 mi WSW 13.8 mph 18.4 mph N/A   Clear
4:36 PM 64.4 °F 48.2 °F 56% 30.31 in 10.0 mi West 13.8 mph - N/A   Clear
4:56 PM 64.4 °F 48.2 °F 56% 30.30 in 10.0 mi WSW 9.2 mph - N/A   Clear
5:16 PM 64.4 °F 48.2 °F 56% 30.30 in 10.0 mi WSW 11.5 mph - N/A   Clear
5:36 PM 64.4 °F 48.2 °F 56% 30.30 in 10.0 mi WSW 13.8 mph - N/A   Clear
5:56 PM 64.4 °F 48.2 °F 56% 30.30 in 10.0 mi WSW 13.8 mph - N/A   Clear
6:16 PM 62.6 °F 48.2 °F 59% 30.29 in 10.0 mi WSW 11.5 mph 16.1 mph N/A   Partly Cloudy
6:36 PM 64.4 °F 48.2 °F 56% 30.29 in 10.0 mi West 12.7 mph - N/A   Partly Cloudy
6:56 PM 64.4 °F 48.2 °F 56% 30.29 in 10.0 mi SW 9.2 mph - N/A   Clear
7:16 PM 62.6 °F 48.2 °F 59% 30.28 in 10.0 mi WSW 9.2 mph - N/A   Clear
7:36 PM 62.6 °F 48.2 °F 59% 30.29 in 10.0 mi SW 8.1 mph - N/A   Clear
7:56 PM 62.6 °F 48.2 °F 59% 30.28 in 10.0 mi WSW 10.4 mph - N/A   Clear
8:16 PM 62.6 °F 48.2 °F 59% 30.28 in 10.0 mi West 9.2 mph - N/A   Clear
8:56 PM 60.8 °F 48.2 °F 63% 30.28 in 10.0 mi West 5.8 mph - N/A   Clear
9:16 PM 60.8 °F 48.2 °F 63% 30.28 in 10.0 mi WSW 4.6 mph - N/A   Clear
9:36 PM 59.0 °F 48.2 °F 67% 30.28 in 10.0 mi West 8.1 mph - N/A   Clear
9:56 PM 57.2 °F 50.0 °F 77% 30.28 in 10.0 mi West 9.2 mph - N/A   Clear
10:16 PM 57.2 °F 50.0 °F 77% 30.28 in 10.0 mi West 6.9 mph - N/A   Clear
10:36 PM 57.2 °F 48.2 °F 72% 30.28 in 10.0 mi WSW 4.6 mph - N/A   Clear
10:56 PM 55.4 °F 50.0 °F 82% 30.28 in 10.0 mi West 3.5 mph - N/A   Clear
11:16 PM 55.4 °F 48.2 °F 77% 30.29 in 10.0 mi Calm Calm - N/A   Clear
11:36 PM 55.4 °F 48.2 °F 77% 30.29 in 10.0 mi SW 3.5 mph - N/A   Clear